Tiempo cada hora Barra do Piraí

Hoy, 13 Mayo, Jueves

Tiempo Temperatura Precipitaciones Viento Presión Humedad
00:00 +20°C° 0.3 mm 1 mps 729 mmHg 97%
01:00 +20°C° 0.3 mm 1 mps 729 mmHg 97%
02:00 +19°C° 0.3 mm 1 mps 729 mmHg 97%
03:00 +18°C° 0.3 mm 2 mps 729 mmHg 97%
04:00 +19°C° 0.5 mm 1 mps 729 mmHg 98%
05:00 +18°C° 0.5 mm 1 mps 730 mmHg 98%
06:00 +18°C° 0.5 mm 1 mps 730 mmHg 98%
07:00 +18°C° 0.2 mm 1 mps 730 mmHg 97%
08:00 +19°C° 0.2 mm 1 mps 731 mmHg 96%
09:00 +19°C° 0.2 mm 1 mps 731 mmHg 95%
10:00 +20°C° 0.1 mm 1 mps 731 mmHg 86%
11:00 +22°C° 0.1 mm 1 mps 731 mmHg 76%
12:00 +24°C° 0.1 mm 1 mps 731 mmHg 67%
13:00 +23°C° 0.1 mm 2 mps 731 mmHg 70%
14:00 +23°C° 0.1 mm 2 mps 731 mmHg 73%
15:00 +21°C° 0.1 mm 3 mps 730 mmHg 76%
16:00 +20°C° 0.1 mm 3 mps 731 mmHg 82%
17:00 +19°C° 0.1 mm 2 mps 731 mmHg 88%
18:00 +18°C° 0.1 mm 1 mps 731 mmHg 94%
19:00 +18°C° 0 mm 1 mps 731 mmHg 94%
20:00 +18°C° 0 mm 1 mps 732 mmHg 94%
21:00 +18°C° 0 mm 1 mps 732 mmHg 94%
22:00 +16°C° 0 mm 0 mps 732 mmHg 95%
23:00 +15°C° 0 mm 0 mps 732 mmHg 95%

Mañana, 14 Mayo, Viernes

Tiempo Temperatura Precipitaciones Viento Presión Humedad
00:00 +15°C° 0 mm 0 mps 732 mmHg 95%
01:00 +15°C° 0 mm 0 mps 732 mmHg 95%
02:00 +14°C° 0 mm 0 mps 731 mmHg 96%
03:00 +14°C° 0 mm 0 mps 731 mmHg 97%
04:00 +14°C° 0 mm 0 mps 731 mmHg 97%
05:00 +14°C° 0 mm 0 mps 731 mmHg 96%
06:00 +13°C° 0 mm 0 mps 731 mmHg 96%
07:00 +15°C° 0 mm 0 mps 732 mmHg 90%
08:00 +17°C° 0 mm 0 mps 732 mmHg 84%
09:00 +19°C° 0 mm 0 mps 733 mmHg 77%
10:00 +20°C° 0 mm 0 mps 732 mmHg 72%
11:00 +23°C° 0 mm 1 mps 732 mmHg 66%
12:00 +24°C° 0 mm 1 mps 731 mmHg 60%
13:00 +24°C° 0 mm 1 mps 731 mmHg 61%
14:00 +23°C° 0 mm 1 mps 731 mmHg 62%
15:00 +23°C° 0 mm 1 mps 730 mmHg 62%
16:00 +22°C° 0 mm 1 mps 730 mmHg 72%
17:00 +20°C° 0 mm 1 mps 730 mmHg 81%
18:00 +18°C° 0 mm 1 mps 730 mmHg 90%
19:00 +18°C° 0 mm 1 mps 731 mmHg 92%
20:00 +15°C° 0 mm 0 mps 731 mmHg 94%
21:00 +15°C° 0 mm 0 mps 731 mmHg 96%
22:00 +15°C° 0 mm 0 mps 731 mmHg 97%
23:00 +14°C° 0 mm 0 mps 731 mmHg 97%

Pasado mañana, 15 Mayo, Sábado

Tiempo Temperatura Precipitaciones Viento Presión Humedad
00:00 +14°C° 0 mm 0 mps 731 mmHg 97%
01:00 +14°C° 0 mm 0 mps 730 mmHg 97%
02:00 +14°C° 0 mm 0 mps 730 mmHg 97%
03:00 +14°C° 0 mm 0 mps 730 mmHg 97%
04:00 +14°C° 0 mm 0 mps 730 mmHg 97%
05:00 +14°C° 0 mm 1 mps 730 mmHg 97%
06:00 +14°C° 0 mm 1 mps 730 mmHg 97%
07:00 +16°C° 0 mm 1 mps 730 mmHg 90%
08:00 +19°C° 0 mm 1 mps 731 mmHg 83%
09:00 +21°C° 0 mm 1 mps 731 mmHg 75%
10:00 +23°C° 0 mm 1 mps 731 mmHg 69%
11:00 +24°C° 0 mm 1 mps 731 mmHg 62%
12:00 +26°C° 0 mm 1 mps 730 mmHg 55%
13:00 +26°C° 0 mm 1 mps 730 mmHg 56%
14:00 +26°C° 0 mm 1 mps 729 mmHg 57%
15:00 +26°C° 0 mm 2 mps 729 mmHg 59%
16:00 +24°C° 0.1 mm 1 mps 729 mmHg 68%
17:00 +22°C° 0.1 mm 1 mps 729 mmHg 78%
18:00 +20°C° 0.1 mm 1 mps 730 mmHg 88%
19:00 +20°C° 0.1 mm 1 mps 730 mmHg 90%
20:00 +19°C° 0.1 mm 1 mps 730 mmHg 92%
21:00 +17°C° 0.1 mm 0 mps 731 mmHg 94%
22:00 +17°C° 0 mm 0 mps 731 mmHg 95%
23:00 +17°C° 0 mm 0 mps 730 mmHg 95%

16 Mayo, Domingo

Tiempo Temperatura Precipitaciones Viento Presión Humedad
00:00 +17°C° 0 mm 0 mps 730 mmHg 95%
01:00 +16°C° 0 mm 0 mps 730 mmHg 96%
02:00 +16°C° 0 mm 0 mps 730 mmHg 96%
03:00 +16°C° 0 mm 0 mps 729 mmHg 96%
04:00 +15°C° 0 mm 0 mps 729 mmHg 97%
05:00 +15°C° 0 mm 0 mps 730 mmHg 97%
06:00 +15°C° 0 mm 0 mps 730 mmHg 97%
07:00 +17°C° 0 mm 0 mps 730 mmHg 91%
08:00 +20°C° 0 mm 1 mps 731 mmHg 85%
09:00 +22°C° 0 mm 1 mps 731 mmHg 79%
10:00 +21°C° 0 mm 0 mps 731 mmHg 72%
11:00 +23°C° 0 mm 0 mps 730 mmHg 65%
12:00 +25°C° 0 mm 0 mps 730 mmHg 58%
13:00 +26°C° 0.1 mm 1 mps 729 mmHg 64%
14:00 +25°C° 0.1 mm 1 mps 729 mmHg 69%
15:00 +24°C° 0.1 mm 1 mps 728 mmHg 74%
16:00 +23°C° 0.1 mm 1 mps 729 mmHg 80%
17:00 +22°C° 0.1 mm 1 mps 729 mmHg 86%
18:00 +20°C° 0.1 mm 1 mps 729 mmHg 91%
19:00 +20°C° 0.1 mm 1 mps 730 mmHg 92%
20:00 +18°C° 0.1 mm 0 mps 730 mmHg 93%
21:00 +18°C° 0.1 mm 0 mps 730 mmHg 94%
22:00 +17°C° 0 mm 0 mps 730 mmHg 95%
23:00 +17°C° 0 mm 0 mps 730 mmHg 95%

17 Mayo, Lunes

Tiempo Temperatura Precipitaciones Viento Presión Humedad
00:00 +17°C° 0 mm 0 mps 730 mmHg 95%
01:00 +17°C° 0 mm 0 mps 729 mmHg 96%
02:00 +16°C° 0 mm 0 mps 729 mmHg 97%
03:00 +18°C° 0 mm 1 mps 729 mmHg 97%
04:00 +18°C° 0 mm 1 mps 729 mmHg 97%
05:00 +16°C° 0 mm 1 mps 729 mmHg 97%
06:00 +16°C° 0 mm 1 mps 729 mmHg 97%
07:00 +19°C° 0 mm 1 mps 729 mmHg 91%
08:00 +20°C° 0 mm 1 mps 729 mmHg 85%
09:00 +22°C° 0 mm 1 mps 730 mmHg 79%
10:00 +24°C° 0 mm 1 mps 729 mmHg 70%
11:00 +26°C° 0 mm 1 mps 729 mmHg 62%
12:00 +28°C° 0 mm 1 mps 728 mmHg 53%
13:00 +28°C° 0 mm 1 mps 728 mmHg 51%
14:00 +29°C° 0 mm 1 mps 727 mmHg 49%
15:00 +29°C° 0 mm 1 mps 726 mmHg 47%
16:00 +26°C° 0 mm 1 mps 727 mmHg 60%
17:00 +24°C° 0 mm 1 mps 727 mmHg 73%
18:00 +21°C° 0 mm 1 mps 727 mmHg 87%
19:00 +20°C° 0 mm 1 mps 727 mmHg 90%
20:00 +20°C° 0 mm 1 mps 728 mmHg 94%
21:00 +17°C° 0 mm 0 mps 728 mmHg 97%
22:00 +16°C° 0 mm 0 mps 728 mmHg 97%
23:00 +16°C° 0 mm 0 mps 728 mmHg 97%

18 Mayo, Martes

Tiempo Temperatura Precipitaciones Viento Presión Humedad
00:00 +16°C° 0 mm 0 mps 728 mmHg 97%
01:00 +16°C° 0 mm 0 mps 728 mmHg 97%
02:00 +16°C° 0 mm 1 mps 727 mmHg 97%
03:00 +16°C° 0 mm 1 mps 727 mmHg 97%
04:00 +16°C° 0 mm 1 mps 727 mmHg 97%
05:00 +16°C° 0 mm 1 mps 727 mmHg 96%
06:00 +16°C° 0 mm 1 mps 728 mmHg 96%
07:00 +17°C° 0 mm 0 mps 728 mmHg 88%
08:00 +19°C° 0 mm 0 mps 729 mmHg 80%
09:00 +21°C° 0 mm 0 mps 730 mmHg 72%
10:00 +24°C° 0 mm 1 mps 730 mmHg 66%
11:00 +26°C° 0 mm 1 mps 729 mmHg 59%
12:00 +27°C° 0 mm 2 mps 729 mmHg 53%
13:00 +26°C° 0 mm 2 mps 729 mmHg 57%
14:00 +26°C° 0 mm 3 mps 728 mmHg 61%
15:00 +25°C° 0 mm 4 mps 728 mmHg 66%
16:00 +22°C° 0 mm 3 mps 728 mmHg 76%
17:00 +20°C° 0 mm 2 mps 729 mmHg 86%
18:00 +19°C° 0 mm 1 mps 729 mmHg 96%
19:00 +19°C° 0 mm 1 mps 730 mmHg 96%
20:00 +19°C° 0 mm 1 mps 730 mmHg 96%
21:00 +17°C° 0 mm 0 mps 731 mmHg 97%
22:00 +17°C° 0 mm 0 mps 731 mmHg 97%
23:00 +17°C° 0 mm 0 mps 730 mmHg 97%
Mostrar más

Necesitamos Su Consentimiento

Meteoprog y nuestros Proveedores de Servicios pueden almacenar y acceder a sus datos personales como cookies, identificadores de dispositivo u otras tecnologías similares de su dispositivo y procesar dichos datos para personalizar contenido y anuncios, además de ofrecer funciones de redes sociales y analizar el tráfico.

  • Almacenar y/o acceder a información en su dispositivo

    Se puede almacenar o acceder a cookies, identificadores de dispositivo u otra información de su dispositivo para los fines anteriormente indicados.

  • Anuncios y contenido personalizados, medición de anuncios y contenido, percepciones del público, y desarrollo de productos

    Los anuncios y el contenido pueden personalizarse en base a su perfil. Se pueden añadir más datos para personalizar mejor los anuncios y contenidos. Se puede medir el rendimiento de los anuncios y contenidos. Se puede obtener la percepción sobre el público que ha visto los anuncios y contenidos. Dichos datos pueden usarse para desarrollar o mejorar la experiencia del usuario, sistemas y software.

Al hacer clic en ‘Estoy De Acuerdo’ usted permitirá el uso de las cookies, identificadores de dispositivo, balizas web u otras tecnologías similares indicadas. Su configuración puede cambiarse desde el navegador de su dispositivo.

Para ciertos fines, los intereses legítimos pueden ser considerados por encima del consentimiento. Puede leer más sobre ello en nuestra Política de Privacidad y Cookies.